Regional Weather Roundup
Issued by NWS

Home | Current Version | Previous Version | Text Only | Print | Product List | Glossary On
Versions: 1 2 3 4 5 6 7 8 9 10 11 12 13 14 15 16 17 18 19 20 21 22 23 24 25 26 27 28 29 30 31 32 33 34 35 36 37 38 39 40 41 42 43 44 45 46 47 48 49 50
000
ASUS43 KDTX 180310
RWRMI
MICHIGAN HOURLY REGIONAL WEATHER ROUNDUP
NATIONAL WEATHER SERVICE DETROIT/PONTIAC MI
1100 PM EDT THU AUG 17 2017

NOTE: "FAIR" INDICATES FEW OR NO CLOUDS BELOW 12,000 FEET WITH NO
SIGNIFICANT WEATHER AND/OR OBSTRUCTION TO VISIBILITY.

MIZ047>049-052>055-059>063-066>070-074>076-081>083-180400-
SOUTHEAST LOWER MICHIGAN

CITY           SKY/WX    TMP DP  RH WIND       PRES   REMARKS
ADRIAN         CLEAR     73  68  84 W6        29.79R
ALMA           CLOUDY    69  65  86 SW10      29.71R
ANN ARBOR      CLEAR     73  68  84 SW9       29.76R
BAD AXE        CLEAR     71  68  91 S6        29.70S
CARO           CLEAR     68  67  96 SW3       29.70S
DETROIT CITY   PTCLDY    78  67  68 W14       29.74R
DETROIT        PTCLDY    76  69  79 SW10      29.76R
FLINT          PTCLDY    72  68  87 SW5       29.72S
GROSSE ILE     PTCLDY    77  68  73 W9        29.74S
HILLSDALE      CLOUDY    72  64  78 SW8       29.79S
HOWELL         PTCLDY    74  67  78 SW7       29.75S

CITY           SKY/WX    TMP DP  RH WIND       PRES   REMARKS
JACKSON          N/A     75  65  70 SW15      29.76S
LAMBERTVILLE   CLEAR     76  66  71 SW8G18    29.78R
LANSING        CLOUDY    75  64  68 SW12      29.73R
LAPEER         CLOUDY    72  71  96 S3        29.73S
MASON          MOCLDY    76  65  69 SW7       29.75S
MONROE         CLEAR     76  68  76 SW9       29.76S
MT. CLEMENS    PTCLDY    77  69  76 SW12      29.72S
PONTIAC        PTCLDY    76  69  79 SW9       29.73S
PORT HOPE        N/A     72  69  90 VRB3      29.66F
PORT HURON     PTCLDY    72  70  94 CALM      29.72S FOG
TRI CITIES     PTCLDY    73  68  84 SW8       29.69S
MIDLAND        MOCLDY    73  65  78 SW6       29.67S
TROY           PTCLDY    77  68  73 SW8       29.76S
SAGINAW HB     CLEAR     70  66  88 S7        29.69S
$$
MIZ043>046-050>051-056>058-064>065-071>073-077>080-180400-
SOUTHWEST LOWER MICHIGAN

CITY           SKY/WX    TMP DP  RH WIND       PRES   REMARKS
BATTLE CREEK   MOCLDY    75  67  76 SW14      29.76S
BENTON HARBOR  CLOUDY    78  65  63 SW16G25   29.75R
BIG RAPIDS     CLOUDY    68  64  88 SW9       29.67S
COLDWATER      CLOUDY    73  67  81 SW9       29.78F
FREMONT        CLOUDY    69  69  98 SW9G16    29.68S
HOLLAND        CLOUDY    72  67  84 W12       29.72F
GRAND RAPIDS   CLOUDY    71  69  93 SW15      29.72S
IONIA          HVY RAIN  70  68  94 SW14G20   29.72R
KALAMAZOO      CLOUDY    76  65  68 SW13G21   29.75S
LUDINGTON      CLOUDY    70  66  86 SW13G18   29.64R
MARSHALL       PTCLDY    73  66  78 S6        29.76S
MOUNT PLEASANT MOCLDY    73  66  80 SW12G18   29.68S
MUSKEGON       CLOUDY    74  66  76 W12G21    29.70R
SOUTH HAVEN    CLOUDY    74  68  82 SW9G16    29.74S
$$
MIZ016>042-180400-
NORTHERN LOWER MICHIGAN

CITY           SKY/WX    TMP DP  RH WIND       PRES   REMARKS
ALPENA         MOCLDY    70  70 100 S6        29.62F
BEAVER ISLAND  CLOUDY    70  66  88 S9        29.56S
BELLAIRE       CLOUDY    71  65  83 S6        29.59F
CADILLAC       CLOUDY    70  66  85 SW10      29.65S
CHARLEVOIX     PTCLDY    71  67  87 S6        29.61S
FRANKFORT      CLOUDY    70  70  99 SW10      29.59S
GAYLORD        MOCLDY    68  64  87 SW13G23   29.63F
GRAYLING       MOCLDY    70  64  81 S10       29.64F
HARBOR SPRINGS CLOUDY    69  68  95 S3        29.59S
HOUGHTON LAKE  MOCLDY    70  66  87 SW12G18   29.66S
MANISTEE       CLOUDY    71  67  87 SW9G20    29.61S
OSCODA         MOCLDY    71  68  88 SW9       29.65R
PELLSTON       CLOUDY    69  68  96 CALM      29.59F
ROGERS CITY    CLOUDY    71  69  95 S3        29.61F
TRAVERSE CITY  LGT RAIN  70  66  87 S8        29.58S FOG
$$
MIZ007>008-015-180400-
EASTERN UPPER MICHIGAN

CITY           SKY/WX    TMP DP  RH WIND       PRES   REMARKS
KINROSS        HVY RAIN  66  65  96 E9        29.59F FOG
MACKINAC ISLAN CLOUDY    68  68 100 S3        29.58F FOG
NEWBERRY       CLOUDY    67  66  97 SE6       29.56F FOG
S. S. MARIE    LGT RAIN  66  64  93 E7        29.60F
MUNISING         N/A     68  68 100 CALM      29.52S
$$
MIZ004>006-011>014-085-180400-
CENTRAL UPPER MICHIGAN

CITY           SKY/WX    TMP DP  RH WIND       PRES   REMARKS
MANISTIQUE     CLOUDY    66  60  81 CALM      29.53F
ESCANABA       FOG       66  66 100 W3        29.52S VSB 1
MENOMINEE      CLEAR     69  67  93 W5        29.56R
SAWYER-GWINN   CLOUDY    64  64  97 CALM      29.55S FOG
$$
MIZ001>003-009>011-084-180400-
WESTERN UPPER MICHIGAN

CITY           SKY/WX    TMP DP  RH WIND       PRES   REMARKS
IRON MOUNTAIN  LGT RAIN  65  61  87 NW15G24   29.57R
HOUGHTON       FOG       58  56  93 NW20      29.58R VSB 3/4
COPPER HARBOR    N/A     56  55  97 N10       29.55R
IRONWOOD       RAIN      60  59  96 NW13G18   29.71S FOG
$$

ABBREVIATIONS USED IN REMARKS
   TC - TEMPERATURE IN CELSIUS
  WCI - WIND CHILL INDEX
   HX - HEAT INDEX
  VSB - VISIBILITY





USA.gov is the U.S. government's official web portal to all federal, state and local government web resources and services.